| time (UTC) | temp C | wind direction | speed KPH | gust KPH | rain 1hr cm | rain 24hr cm | rain mn cm | humidity % | barometer mb |
| 20260901174537 | 20 | 192 | 3.2 | 14.5 | 0.00 | 0.00 | 0.00 | 52 | 1014.8 |
| 20260901173031 | 20 | 192 | 0.0 | 9.7 | 0.00 | 0.00 | 0.00 | 55 | 1014.7 |
| 20260901171530 | 20 | 159 | 0.0 | 9.7 | 0.00 | 0.00 | 0.00 | 53 | 1014.7 |
| 20260901170030 | 20 | 217 | 6.4 | 9.7 | 0.00 | 0.00 | 0.00 | 52 | 1014.6 |
| 20260901164530 | 19 | 165 | 8.0 | 11.3 | 0.00 | 0.00 | 0.00 | 55 | 1014.5 |
| 20260901163026 | 18 | 185 | 1.6 | 4.8 | 0.00 | 0.00 | 0.00 | 58 | 1014.4 |
| 20260901161521 | 18 | 221 | 3.2 | 11.3 | 0.00 | 0.00 | 0.00 | 58 | 1014.7 |
| 20260901160017 | 18 | 228 | 0.0 | 8.0 | 0.00 | 0.00 | 0.00 | 58 | 1014.5 |
| 20260901154523 | 18 | 235 | 3.2 | 11.3 | 0.00 | 0.00 | 0.00 | 59 | 1014.2 |
| 20260901153010 | 17 | 231 | 0.0 | 8.0 | 0.00 | 0.00 | 0.00 | 61 | 1014.3 |
| 20260901151514 | 17 | 171 | 3.2 | 14.5 | 0.00 | 0.00 | 0.00 | 61 | 1014.0 |
| 20260901150012 | 17 | 211 | 3.2 | 9.7 | 0.00 | 0.00 | 0.00 | 63 | 1014.2 |
| 20260901144601 | 16 | 200 | 3.2 | 11.3 | 0.00 | 0.00 | 0.00 | 64 | 1013.8 |
| 20260901143120 | 16 | 203 | 4.8 | 9.7 | 0.00 | 0.00 | 0.00 | 65 | 1013.6 |
| 20260901141607 | 16 | 234 | 1.6 | 11.3 | 0.00 | 0.00 | 0.00 | 65 | 1013.5 |
| 20260901140050 | 16 | 192 | 3.2 | 8.0 | 0.00 | 0.00 | 0.00 | 65 | 1013.2 |
| 20260901134548 | 16 | 234 | 4.8 | 12.9 | 0.00 | 0.00 | 0.00 | 64 | 1013.1 |
| 20260901133102 | 16 | 207 | 3.2 | 11.3 | 0.00 | 0.00 | 0.00 | 66 | 1013.1 |
| 20260901131545 | 16 | 222 | 1.6 | 8.0 | 0.00 | 0.00 | 0.00 | 66 | 1013.1 |
| 20260901130050 | 16 | 215 | 4.8 | 11.3 | 0.00 | 0.00 | 0.00 | 66 | 1012.9 |
| 20260901124544 | 16 | 222 | 0.0 | 6.4 | 0.00 | 0.00 | 0.00 | 66 | 1012.8 |
| 20260901123043 | 16 | 223 | 1.6 | 4.8 | 0.00 | 0.00 | 0.00 | 66 | 1012.9 |
| 20260901121542 | 16 | 307 | 0.0 | 6.4 | 0.00 | 0.00 | 0.00 | 66 | 1012.8 |
| 20260901120048 | 16 | 295 | 0.0 | 4.8 | 0.00 | 0.00 | 0.00 | 67 | 1012.6 |
| 20260901114539 | 16 | 267 | 0.0 | 4.8 | 0.00 | 0.00 | 0.00 | 67 | 1012.8 |
| 20260901113050 | 16 | 281 | 3.2 | 8.0 | 0.00 | 0.00 | 0.00 | 66 | 1013.0 |
| 20260901111539 | 16 | 233 | 0.0 | 9.7 | 0.00 | 0.00 | 0.00 | 66 | 1012.9 |
| 20260901110036 | 16 | 293 | 0.0 | 8.0 | 0.00 | 0.00 | 0.00 | 67 | 1012.9 |
| 20260901104544 | 16 | 281 | 3.2 | 8.0 | 0.00 | 0.00 | 0.00 | 68 | 1012.9 |
| 20260901103033 | 16 | 263 | 0.0 | 6.4 | 0.00 | 0.00 | 0.00 | 68 | 1012.8 |
| 20260901101537 | 16 | 243 | 0.0 | 6.4 | 0.00 | 0.00 | 0.00 | 68 | 1012.6 |
| 20260901100032 | 16 | 237 | 1.6 | 9.7 | 0.00 | 0.00 | 0.00 | 68 | 1012.6 |
| 20260901094535 | 16 | 282 | 0.0 | 4.8 | 0.00 | 0.00 | 0.00 | 68 | 1012.5 |
| 20260901093034 | 16 | 281 | 0.0 | 1.6 | 0.00 | 0.00 | 0.00 | 69 | 1012.5 |
| 20260901091531 | 16 | 265 | 0.0 | 4.8 | 0.00 | 0.00 | 0.00 | 68 | 1012.4 |
| 20260901090031 | 16 | 306 | 3.2 | 6.4 | 0.00 | 0.00 | 0.00 | 68 | 1012.5 |
| 20260901084528 | 16 | 300 | 1.6 | 8.0 | 0.00 | 0.00 | 0.00 | 68 | 1012.4 |
| 20260901083028 | 16 | 290 | 4.8 | 9.7 | 0.00 | 0.00 | 0.00 | 68 | 1012.4 |
| 20260901081527 | 16 | 316 | 3.2 | 8.0 | 0.00 | 0.00 | 0.00 | 69 | 1012.6 |
| 20260901080031 | 16 | 320 | 0.0 | 8.0 | 0.00 | 0.00 | 0.00 | 69 | 1012.5 |
| 20260901074525 | 16 | 328 | 1.6 | 6.4 | 0.00 | 0.00 | 0.00 | 70 | 1012.4 |
| 20260901073024 | 16 | 324 | 3.2 | 8.0 | 0.00 | 0.00 | 0.00 | 69 | 1012.6 |
| 20260901071523 | 16 | 281 | 0.0 | 0.0 | 0.00 | 0.00 | 0.00 | 70 | 1012.6 |
| 20260901070021 | 16 | 281 | 0.0 | 0.0 | 0.00 | 0.00 | 0.00 | 69 | 1012.6 |
| 20260901064523 | 16 | 281 | 0.0 | 4.8 | 0.00 | 0.00 | 0.00 | 69 | 1012.6 |
| 20260901063021 | 16 | 27 | 0.0 | 4.8 | 0.00 | 0.00 | 0.00 | 70 | 1012.6 |
| 20260901061520 | 16 | 297 | 0.0 | 4.8 | 0.00 | 0.00 | 0.00 | 72 | 1012.8 |
| 20260901060022 | 16 | 302 | 3.2 | 11.3 | 0.00 | 0.00 | 0.00 | 70 | 1012.7 |
| 20260901054619 | 16 | 322 | 6.4 | 12.9 | 0.00 | 0.00 | 0.00 | 70 | 1012.7 |
| 20260901053016 | 16 | 327 | 1.6 | 12.9 | 0.00 | 0.00 | 0.00 | 71 | 1012.8 |
| 20260901051517 | 16 | 321 | 3.2 | 9.7 | 0.00 | 0.00 | 0.00 | 72 | 1012.7 |
| 20260901050016 | 16 | 320 | 3.2 | 9.7 | 0.00 | 0.00 | 0.00 | 72 | 1012.4 |
| 20260901044515 | 16 | 17 | 4.8 | 9.7 | 0.00 | 0.00 | 0.00 | 73 | 1012.4 |
| 20260901043020 | 16 | 321 | 6.4 | 14.5 | 0.00 | 0.00 | 0.00 | 72 | 1012.4 |
| 20260901041513 | 16 | 312 | 4.8 | 14.5 | 0.00 | 0.00 | 0.00 | 73 | 1012.2 |
| 20260901040013 | 16 | 319 | 4.8 | 14.5 | 0.00 | 0.00 | 0.00 | 74 | 1012.1 |
| 20260901034512 | 16 | 340 | 4.8 | 12.9 | 0.00 | 0.00 | 0.00 | 73 | 1011.9 |
| 20260901033011 | 17 | 328 | 4.8 | 14.5 | 0.00 | 0.00 | 0.00 | 71 | 1011.8 |
| 20260901031520 | 17 | 300 | 8.0 | 17.7 | 0.00 | 0.00 | 0.00 | 71 | 1011.4 |
| 20260901030110 | 17 | 338 | 3.2 | 20.9 | 0.00 | 0.00 | 0.00 | 70 | 1011.2 |
| 20260901024509 | 17 | 331 | 6.4 | 16.1 | 0.00 | 0.00 | 0.00 | 70 | 1011.3 |
| 20260901023021 | 17 | 323 | 8.0 | 17.7 | 0.00 | 0.00 | 0.00 | 69 | 1011.2 |
| 20260901021515 | 18 | 334 | 6.4 | 16.1 | 0.00 | 0.00 | 0.00 | 69 | 1011.2 |
| 20260901020020 | 18 | 336 | 12.9 | 19.3 | 0.00 | 0.00 | 0.00 | 67 | 1011.0 |
| 20260901014511 | 18 | 336 | 9.7 | 22.5 | 0.00 | 0.00 | 0.00 | 68 | 1010.9 |
| 20260901013018 | 19 | 321 | 8.0 | 19.3 | 0.00 | 0.00 | 0.00 | 66 | 1010.9 |
| 20260901011514 | 19 | 24 | 8.0 | 24.1 | 0.00 | 0.00 | 0.00 | 65 | 1011.0 |
| 20260901010007 | 20 | 9 | 14.5 | 24.1 | 0.00 | 0.00 | 0.00 | 64 | 1011.1 |
| 20260901004504 | 20 | 335 | 12.9 | 22.5 | 0.00 | 0.00 | 0.00 | 63 | 1011.1 |
| 20260901003003 | 20 | 327 | 9.7 | 22.5 | 0.00 | 0.00 | 0.00 | 61 | 1010.9 |
| 20260901001510 | 21 | 5 | 12.9 | 24.1 | 0.00 | 0.00 | 0.00 | 61 | 1010.9 |
| 20260901000002 | 21 | 340 | 12.9 | 30.6 | 0.00 | 0.00 | 0.00 | 61 | 1011.0 |
| 20260831234501 | 21 | 32 | 12.9 | 29.0 | 0.00 | 0.00 | 0.00 | 60 | 1011.1 |
| 20260831233100 | 22 | 355 | 9.7 | 24.1 | 0.00 | 0.00 | 0.00 | 59 | 1011.0 |
| 20260831231600 | 21 | 49 | 9.7 | 22.5 | 0.00 | 0.00 | 0.00 | 60 | 1011.0 |
| 20260831230105 | 22 | 63 | 6.4 | 24.1 | 0.00 | 0.00 | 0.00 | 58 | 1011.2 |
| 20260831224559 | 22 | 20 | 14.5 | 27.4 | 0.00 | 0.00 | 0.00 | 56 | 1011.3 |
| 20260831223057 | 23 | 5 | 11.3 | 25.7 | 0.00 | 0.00 | 0.00 | 56 | 1011.2 |
| 20260831221603 | 22 | 17 | 11.3 | 22.5 | 0.00 | 0.00 | 0.00 | 57 | 1011.3 |
| 20260831220056 | 23 | 330 | 14.5 | 25.7 | 0.00 | 0.00 | 0.00 | 55 | 1011.7 |
| 20260831214559 | 23 | 34 | 14.5 | 25.7 | 0.00 | 0.00 | 0.00 | 56 | 1011.9 |
| 20260831213056 | 23 | 19 | 11.3 | 22.5 | 0.00 | 0.00 | 0.00 | 56 | 1012.0 |
| 20260831211556 | 23 | 345 | 9.7 | 22.5 | 0.00 | 0.00 | 0.00 | 55 | 1012.1 |
| 20260831210056 | 23 | 22 | 8.0 | 19.3 | 0.00 | 0.00 | 0.00 | 55 | 1012.2 |
| 20260831204555 | 23 | 42 | 4.8 | 20.9 | 0.00 | 0.00 | 0.00 | 56 | 1012.2 |
| 20260831203101 | 23 | 335 | 8.0 | 17.7 | 0.00 | 0.00 | 0.00 | 53 | 1012.5 |
| 20260831201548 | 23 | 248 | 4.8 | 19.3 | 0.00 | 0.00 | 0.00 | 53 | 1012.3 |
| 20260831200046 | 23 | 344 | 6.4 | 16.1 | 0.00 | 0.00 | 0.00 | 53 | 1012.4 |
| 20260831194552 | 23 | 315 | 6.4 | 14.5 | 0.00 | 0.00 | 0.00 | 54 | 1012.5 |
| 20260831193046 | 23 | 204 | 4.8 | 11.3 | 0.00 | 0.00 | 0.00 | 54 | 1012.6 |
| 20260831191555 | 22 | 26 | 1.6 | 9.7 | 0.00 | 0.00 | 0.00 | 57 | 1012.8 |
| 20260831190040 | 21 | 313 | 3.2 | 14.5 | 0.00 | 0.00 | 0.00 | 60 | 1012.9 |
| 20260831184538 | 20 | 55 | 1.6 | 8.0 | 0.00 | 0.00 | 0.00 | 63 | 1013.0 |
| 20260831183037 | 20 | 129 | 3.2 | 11.3 | 0.00 | 0.00 | 0.00 | 62 | 1013.1 |
| 20260831181535 | 20 | 306 | 1.6 | 9.7 | 0.00 | 0.00 | 0.00 | 63 | 1013.2 |
| 20260831180034 | 19 | 44 | 6.4 | 11.3 | 0.00 | 0.00 | 0.00 | 65 | 1013.2 |